Flag for France Weather past 2 weeks in Bordeaux, France

Now
68 °F

Clear.


Feels Like: 68 °F
Forecast: 66 / 87 °F
Wind: 3 mph from North

Location: Bordeaux / Merignac

Current Time: Jul 23, 2014 at 8:29:47 AM

Latest Report: Jul 23, 2014 at 8:00 AM


Visibility: N/A

Pressure: 29.98 "Hg

Humidity: 83%

Dew point: 63 °F

Location of BordeauxLocation

Historic Weather in Bordeaux — Graph

°F

Bordeaux temperature yesterday

Maximum temperature yesterday: 81 °F (at 3:00 PM)
Minimum temperature yesterday: 61 °F (at 2:30 AM)
Average temperature yesterday: 70 °F

Past Weeks' High & Low Weather Summary

 TemperatureHumidityPressure
High95 °F (Jul 17, 5:00 PM)100% (Jul 8, 8:00 AM)30.18 "Hg (Jul 8, 8:00 AM)
Low55 °F (Jul 15, 5:30 AM)32% (Jul 17, 3:30 PM)29.71 "Hg (Jul 18, 11:00 PM)
Average69 °F76%30.05 "Hg
* Reported Jul 8 7:00 AM — Jul 23 7:30 AM, Bordeaux, Weather by CustomWeather, © 2014

Note: Actual official high and low records may vary slightly from our data, if they occured in-between our weather recording intervals... More about our weather records

Advertising

Bordeaux weather history for previous 24 hours

 ConditionsComfort  
Time TempWeatherWind HumidityBarometerVisibility
7:30 AM
Jul 23
66 °FClear.2 mph88%29.98 "HgN/A
7:00 AM63 °FLight fog.2 mph94%29.98 "HgN/A
6:30 AM63 °FClear.2 mph94%29.98 "HgN/A
6:00 AM64 °FClear.1 mph88%29.98 "HgN/A
5:30 AM64 °FClear.1 mph94%29.98 "HgN/A
5:00 AM64 °FClear.5 mph94%30.01 "HgN/A
4:30 AM64 °FClear.5 mph94%30.01 "HgN/A
4:00 AM64 °FClear.5 mph94%30.01 "HgN/A
3:30 AM64 °FClear.5 mph88%30.01 "HgN/A
3:00 AM64 °FClear.5 mph88%30.04 "HgN/A
2:30 AM66 °FClear.2 mph83%30.04 "HgN/A
2:00 AM66 °FClear.2 mph83%30.04 "HgN/A
1:00 AM66 °FClear.3 mph88%30.07 "HgN/A
7:00 PM
Jul 22
81 °FClear.10 mph54%30.04 "HgN/A
6:30 PM81 °FBroken clouds.6 mph51%30.07 "HgN/A
6:00 PM81 °FScattered clouds.8 mph51%30.07 "HgN/A
5:30 PM81 °FScattered clouds.7 mph51%30.07 "HgN/A
5:00 PM81 °FPassing clouds.6 mph48%30.07 "HgN/A
4:30 PM81 °FPassing clouds.7 mph51%30.07 "HgN/A
4:00 PM81 °FBroken clouds.6 mph51%30.09 "HgN/A
3:30 PM79 °FBroken clouds.8 mph51%30.09 "HgN/A
3:00 PM81 °FBroken clouds.9 mph51%30.09 "HgN/A
2:30 PM79 °FBroken clouds.7 mph54%30.09 "HgN/A
2:00 PM77 °FScattered clouds.9 mph57%30.12 "HgN/A
1:30 PM77 °FScattered clouds.8 mph54%30.12 "HgN/A
1:00 PM77 °FPartly sunny.5 mph57%30.12 "HgN/A
12:30 PM75 °FScattered clouds.5 mph65%30.12 "HgN/A
12:00 PM75 °FPartly sunny.6 mph65%30.12 "HgN/A
11:30 AM75 °FPassing clouds.3 mph61%30.15 "HgN/A
11:00 AM73 °FClear.2 mph69%30.15 "HgN/A
10:30 AM72 °FClear.3 mph73%30.15 "HgN/A
10:00 AM70 °FPassing clouds.3 mph78%30.15 "HgN/A
9:30 AM68 °FPassing clouds.3 mph83%30.15 "HgN/A
9:00 AM64 °FPassing clouds.5 mph94%30.15 "HgN/A
8:30 AM63 °FClear.3 mph100%30.15 "HgN/A
8:00 AM63 °FPassing clouds.2 mph94%30.15 "HgN/A
Weather by CustomWeather, © 2014

See weather overviewHow to use our weather pages